Simultaneous Nadir Overpasses (SNOs) Predictions

Prediction of SNOs near US between AQUA and NPP Satellite Orbit:

Table of predicted SNOs near US for the next 10.0 days since TLE Epoch: 3/20/2020
Index Date (AQUA) Time (AQUA) AQUA Lat,Lon Date (NPP) Time (NPP) NPP Lat,Lon Distance(km) Time Diff (sec)
1 03/21/2020 09:24:48 20.02,-114.25 03/21/2020 09:16:28 19.69,-114.82 69.70 500
2 03/24/2020 06:31:03 44.85, -65.60 03/24/2020 06:30:36 45.20, -67.63 164.83 27
3 03/24/2020 08:08:31 49.90, -88.36 03/24/2020 08:10:36 50.39, -90.85 185.49 125
4 03/24/2020 09:47:24 49.91,-113.08 03/24/2020 09:52:03 50.55,-116.15 229.91 279
5 03/26/2020 19:06:41 49.99, -92.56 03/26/2020 19:00:54 49.69, -94.43 137.89 347
6 03/26/2020 20:45:34 49.98,-117.28 03/26/2020 20:42:22 49.58,-119.75 183.16 192




NCC Satellite Simultaneous Nadir Overpasses (SNOs) Prediction Service
